This is the latest recevied weather packets stored in our database for station/object CALDNA-WX. If no packets are shown the sender has not sent any weather packets the latest 10 day(s).
| Time | Temp. | Humidity | Pressure | Rain* | Wind** | Luminosity | Snow |
|---|---|---|---|---|---|---|---|
| 1777558522 | 6.11° C | 79% | 989 hPa | 0 mm | - | - | - |
| 1777557652 | 5.56° C | 79% | 989 hPa | 0 mm | - | - | - |
| 1777556722 | 5.56° C | 84% | 988.5 hPa | 0 mm | - | - | - |
| 1777555841 | 6.11° C | 84% | 988.5 hPa | 0 mm | - | - | - |
| 1777554921 | 5.56° C | 84% | 988.5 hPa | 0 mm | - | - | - |
| 1777554050 | 5° C | 84% | 988.5 hPa | 0 mm | - | - | - |
| 1777553122 | 5° C | 85% | 987.2 hPa | 0 mm | - | - | - |
| 1777552235 | 5° C | 87% | 988.1 hPa | 0 mm | - | - | - |
| 1777551322 | 4.44° C | 87% | 988.1 hPa | 0 mm | - | - | - |
| 1777550451 | 3.89° C | 87% | 988.1 hPa | 0 mm | - | - | - |
| 1777549522 | 3.33° C | 88% | 986.9 hPa | 0 mm | - | - | - |
| 1777548640 | 2.78° C | 90% | 987.7 hPa | 0 mm | - | - | - |
| 1777547720 | 2.22° C | 90% | 987.7 hPa | 0 mm | - | - | - |
| 1777546846 | 2.22° C | 90% | 987.7 hPa | 0 mm | - | - | - |
| 1777545920 | 2.22° C | 91% | 987.4 hPa | 0 mm | - | - | - |
| 1777545038 | 2.22° C | 91% | 988.1 hPa | 0 mm | - | - | - |
| 1777544120 | 2.22° C | 91% | 988.1 hPa | 0 mm | - | - | - |
| 1777543245 | 2.22° C | 91% | 988.4 hPa | 0 mm | - | - | - |
| 1777542320 | 2.22° C | 89% | 988.1 hPa | 0 mm | - | - | - |
| 1777541437 | 2.78° C | 89% | 988.1 hPa | 0 mm | - | - | - |
| 1777540520 | 2.78° C | 89% | 988.1 hPa | 0 mm | - | - | - |
| 1777539644 | 2.78° C | 89% | 988.1 hPa | 0 mm | - | - | - |
| 1777538720 | 2.78° C | 87% | 987.1 hPa | 0 mm | - | - | - |
| 1777537841 | 2.78° C | 86% | 987.5 hPa | 0 mm | - | - | - |
| 1777536921 | 3.33° C | 86% | 987.5 hPa | 0 mm | - | - | - |
* Rain latest hour (hover to see other rain measurements)
** Current wind speed in m/s (hover to see current wind gust speed)